Time,B instrument,Bx,By,Bz,sigma B,Ion instrument,Status,Tp_par,Tp_perp,carrot,r_sun,clat,clong,earth_he_angle,n_p,vp_x,vp_y,vp_z,vth_p_par,vth_p_perp
1980-05-04 00:19:42,-1,nan,nan,nan,nan,1,3,nan,nan,1694,0.56636906,-6.9178791,35.828857,285.40308,nan,343.859,-39.9571,-15.328,nan,nan
1980-05-04 00:41:18,-1,nan,nan,nan,nan,1,3,nan,nan,1694,0.56617993,-6.9190569,35.647217,285.42065,nan,339.593,-23.0406,-17.7558,nan,nan
1980-05-04 01:02:54,-1,nan,nan,nan,nan,1,3,nan,nan,1694,0.56599945,-6.9201794,35.4646,285.43726,nan,346.347,3.97078,-20.21,nan,nan
1980-05-04 01:24:30,-1,nan,nan,nan,nan,1,3,nan,nan,1694,0.56581026,-6.9213514,35.282959,285.45483,nan,349.783,17.3328,-11.4161,nan,nan
1980-05-04 01:46:06,-1,nan,nan,nan,nan,1,3,nan,nan,1694,0.56562108,-6.9225235,35.105225,285.47241,nan,344.632,32.2454,2.83996,nan,nan
1980-05-04 02:07:42,-1,nan,nan,nan,nan,1,3,nan,nan,1694,0.56544042,-6.9236422,34.922607,285.48901,nan,361.748,63.1014,1.62177,nan,nan
1980-05-04 02:29:18,-1,nan,nan,nan,nan,1,3,nan,nan,1694,0.56525111,-6.9248114,34.740967,285.50659,nan,353.588,54.3955,-3.75927,nan,nan
1980-05-04 02:50:54,-1,nan,nan,nan,nan,1,3,nan,nan,1694,0.56507045,-6.9259281,34.558594,285.52344,nan,346.326,62.3832,13.1631,nan,nan
1980-05-04 03:12:30,-1,nan,nan,nan,nan,1,3,nan,nan,1694,0.56488109,-6.9270954,34.380859,285.54102,nan,357.507,43.763,-6.61552,nan,nan
1980-05-04 03:34:06,-1,nan,nan,nan,nan,1,3,nan,nan,1694,0.56469172,-6.9282598,34.199219,285.55859,nan,369.908,51.5123,23.6431,nan,nan
1980-05-04 03:55:42,-1,nan,nan,nan,nan,1,3,nan,nan,1694,0.564511,-6.9293709,34.016602,285.5752,nan,393.217,53.8312,17.3876,nan,nan
1980-05-04 04:17:18,-1,nan,nan,nan,nan,1,3,nan,nan,1694,0.56432152,-6.9305334,33.835205,285.59302,nan,348.303,29.2787,37.4444,nan,nan
1980-05-04 04:38:54,-1,nan,nan,nan,nan,1,3,nan,nan,1694,0.56414062,-6.9316425,33.652832,285.60986,nan,344.992,32.6275,27.2595,nan,nan
1980-05-04 05:00:30,-1,nan,nan,nan,nan,1,3,nan,nan,1694,0.56395108,-6.9328051,33.475342,285.62769,nan,350.046,35.6122,29.5982,nan,nan
1980-05-04 05:22:06,-1,nan,nan,nan,nan,1,3,nan,nan,1694,0.56376153,-6.9339619,33.293701,285.64526,nan,327.534,23.0023,39.4193,nan,nan
1980-05-04 06:07:16,1,7.38571,-12.1786,-4.25714,0.555171,1,1,201014.0,73673.6,1694,0.56338185,-6.9172235,32.821716,285.58734,12.7703,349.301,38.5143,22.6903,57.6064,34.875
1980-05-04 06:07:47,1,8.16923,-11.6462,-4.48462,0.813205,1,1,177245.0,75195.7,1694,0.56337374,-6.936327,32.912109,285.68164,11.9008,350.551,44.4674,18.0363,54.0935,35.2334
1980-05-04 06:08:37,1,7.18667,-10.78,-7.39333,0.600592,1,1,183238.0,72279.9,1694,0.5633651,-6.9363794,32.905029,285.68237,11.3529,346.191,36.6426,39.5835,55.0003,34.5435
1980-05-04 06:09:17,1,6.15,-11.3786,-7.55,0.460867,1,1,199626.0,81143.7,1694,0.56335652,-6.9364319,32.897949,285.68311,13.3602,352.033,35.744,40.4294,57.4072,36.6003
1980-05-04 06:10:02,1,5.86154,-11.4538,-7.92308,0.580858,1,1,160380.0,64510.9,1694,0.56334788,-6.9364843,32.891113,285.68408,13.6877,308.623,82.7757,38.1518,51.4557,32.6343
1980-05-04 06:10:42,1,4.375,-12.1,-8.4,0.530919,1,1,146979.0,67831.7,1694,0.56334788,-6.9364843,32.887207,285.68408,11.0374,353.05,35.7714,41.9141,49.259,33.4637
1980-05-04 06:11:23,1,3.42143,-12.3071,-8.40714,0.83333,1,1,183630.0,68518.2,1694,0.56333923,-6.9365368,32.880127,285.68481,12.1127,358.907,40.0486,38.5757,55.0592,33.6326
1980-05-04 06:12:03,1,3.18,-11.9467,-8.87333,0.536076,1,1,187191.0,69145.4,1694,0.56333065,-6.9365892,32.876953,285.68555,12.2092,363.452,34.3366,46.7935,55.5904,33.7862
1980-05-04 06:12:40,1,4.25333,-11.9,-8.41333,0.720864,1,1,244710.0,77094.0,1694,0.56333065,-6.9365892,32.869141,285.68555,12.0024,362.719,32.2578,37.3728,63.56,35.6753
1980-05-04 06:13:20,1,0.392857,-7.36429,-13.0786,2.17789,1,1,385881.0,70658.5,1694,0.56332201,-6.9366417,32.865967,285.68628,12.7581,379.71,7.29175,50.8087,79.8151,34.1539
1980-05-04 06:14:01,1,0.8,-9.01333,-12.7067,1.09199,1,1,252755.0,69270.2,1694,0.56331336,-6.9366941,32.859131,285.68726,12.1252,373.849,20.4532,49.7702,64.5963,33.8167
1980-05-04 06:14:41,1,0.293333,-9.28667,-12.7933,0.715355,1,1,242272.0,61796.8,1694,0.56331336,-6.9366941,32.851318,285.68726,12.2653,370.387,17.2268,51.2808,63.2426,31.9404
1980-05-04 06:15:22,1,1.20625,-9.60625,-12.2563,0.904092,1,1,208403.0,63048.6,1694,0.56330478,-6.9367466,32.848145,285.68799,11.3662,371.57,18.445,53.6308,58.6557,32.2623
1980-05-04 06:16:02,1,2.23333,-10.5133,-10.6467,2.02465,1,1,219083.0,72334.9,1694,0.56329614,-6.936799,32.841064,285.68872,12.9345,371.239,33.5927,36.6322,60.1398,34.5567
1980-05-04 06:16:43,1,2.725,-7.8375,-13.1625,1.17274,1,1,183286.0,55785.1,1694,0.56329614,-6.936799,32.837158,285.68872,11.5003,368.912,11.5082,55.7743,55.0075,30.3471
1980-05-04 06:17:23,1,1.98,-7.76667,-12.8667,0.659832,1,1,256767.0,70770.9,1694,0.5632875,-6.9368515,32.830322,285.6897,13.0601,372.054,14.7522,58.362,65.107,34.181
1980-05-04 06:18:04,1,4.45,-10.3938,-9.925,1.12914,1,1,199575.0,69233.8,1694,0.56327891,-6.936904,32.823242,285.69043,12.0821,359.049,28.3357,42.4064,57.3999,33.8078
1980-05-04 06:18:44,1,5.48,-10.1067,-10.0733,0.47065,1,1,184645.0,64629.4,1694,0.56327891,-6.936904,32.819336,285.69043,12.2192,359.124,22.8316,45.1163,55.2112,32.6643
1980-05-04 06:19:25,1,5.49286,-9.84286,-9.62857,0.63088,1,1,236477.0,67120.6,1694,0.56327027,-6.9369564,32.812256,285.69116,14.3986,361.648,15.9294,38.5613,62.4816,33.2879
1980-05-04 06:20:46,1,6.5,-10.4,-10.2,0.0,1,1,104258.0,63504.2,1694,0.56326163,-6.9370089,32.801514,285.69214,11.649,353.375,27.266,47.4957,41.4871,32.3787
1980-05-04 06:21:26,1,6.41333,-9.71333,-10.4,0.59524,1,1,162178.0,61983.9,1694,0.56325305,-6.9370613,32.794434,285.69287,12.0937,355.758,23.2481,47.4605,51.7433,31.9887
1980-05-04 06:22:47,1,6.47143,-9.42143,-10.55,0.402416,1,1,166048.0,59645.0,1694,0.5632444,-6.9371138,32.783447,285.6936,12.2304,355.401,19.5662,46.1721,52.357,31.3794
1980-05-04 06:23:28,1,7.80714,-9.65714,-9.87857,0.446186,1,1,139294.0,59483.0,1694,0.56323582,-6.9371662,32.780273,285.69434,11.4638,349.278,24.3023,48.0575,47.9539,31.3368
1980-05-04 06:24:08,1,7.17143,-9.84286,-10.2429,0.822763,1,1,132572.0,61331.4,1694,0.56322718,-6.9372187,32.773438,285.69531,11.3188,349.781,27.4434,46.3212,46.7826,31.8199
1980-05-04 06:24:49,1,7.19333,-9.85333,-10.4333,0.935236,1,1,98102.8,61094.4,1694,0.56322718,-6.9372187,32.769531,285.69531,10.1,356.717,22.0399,53.7608,40.2438,31.7584
1980-05-04 06:25:29,1,7.28667,-10.8067,-9.12,2.54965,1,1,93784.5,67207.9,1694,0.56321853,-6.9372711,32.762451,285.69604,10.8024,346.665,35.7294,34.271,39.3481,33.3095
1980-05-04 06:26:50,-1,nan,nan,nan,nan,1,4,nan,nan,1694,0.56320995,-6.9373236,32.751465,285.69678,nan,nan,nan,nan,nan,nan
1980-05-04 06:27:31,1,6.07143,-9.65714,-11.95,0.430768,1,1,106837.0,57728.9,1694,0.56320131,-6.937376,32.744629,285.69775,10.6781,360.313,21.9782,50.6106,41.9971,30.8713
1980-05-04 06:28:11,1,6.47857,-9.47143,-11.7214,0.465657,1,1,107529.0,56816.0,1694,0.56319267,-6.9374285,32.741455,285.69849,10.5978,359.061,22.519,51.7884,42.1328,30.6262
1980-05-04 06:28:52,1,6.54,-9.63333,-11.5067,0.7447,1,1,93161.1,60646.5,1694,0.56319267,-6.9374285,32.733643,285.69849,10.4084,356.959,26.5961,48.572,39.2171,31.6418
1980-05-04 06:29:32,1,6.42143,-10.0929,-11.2643,0.991572,1,1,111540.0,55323.5,1694,0.56318408,-6.9374809,32.726563,285.69922,10.489,357.8,25.5705,52.9241,42.9115,30.2213
1980-05-04 06:30:13,1,7.30714,-10.6857,-9.89286,0.394218,1,1,106903.0,61239.5,1694,0.56317544,-6.9375334,32.723633,285.7002,11.0249,355.034,31.3357,45.9041,42.0099,31.7961
1980-05-04 06:30:53,1,7.84,-10.4067,-9.72,0.486438,1,1,96821.6,60118.7,1694,0.56317544,-6.9375334,32.71582,285.7002,10.9289,352.142,25.9168,45.0008,39.9801,31.5038
1980-05-04 06:31:34,1,7.67333,-10.7733,-9.48,0.579808,1,1,93109.0,63769.2,1694,0.5631668,-6.9375849,32.712646,285.70093,10.7118,354.447,27.7765,43.886,39.2061,32.4462
1980-05-04 06:32:14,1,7.88,-10.8,-9.44,0.388158,1,1,92924.2,57140.3,1694,0.56315821,-6.9376373,32.705566,285.70166,10.733,353.412,26.3731,40.5627,39.1672,30.7135
1980-05-04 06:32:55,1,7.69333,-10.8867,-9.46,0.491438,1,1,111187.0,63794.4,1694,0.56315821,-6.9376373,32.70166,285.70166,10.8174,354.465,31.0649,44.3168,42.8435,32.4526
1980-05-04 06:34:16,1,6.87143,-10.4714,-10.7143,0.495284,1,1,116515.0,59825.8,1694,0.56314093,-6.9377422,32.687744,285.70337,11.0906,360.239,25.3256,51.1755,43.8581,31.4269
1980-05-04 06:34:56,1,7.19333,-10.2667,-10.5467,0.292119,1,1,110239.0,56200.1,1694,0.56314093,-6.9377422,32.683838,285.70337,11.0239,356.942,24.5223,47.512,42.6605,30.4598
1980-05-04 06:35:37,1,7.93333,-9.70667,-10.6867,0.668331,1,1,97376.1,84374.8,1694,0.56313235,-6.9377947,32.676758,285.7041,10.9136,352.241,21.9429,52.7044,40.0944,37.322
1980-05-04 06:36:17,1,7.00769,-10.8308,-10.2,0.544689,1,1,109873.0,64213.3,1694,0.5631237,-6.9378471,32.673584,285.70483,11.2387,360.125,28.1184,47.5713,42.5895,32.559
1980-05-04 06:36:58,1,6.57857,-10.7786,-10.8357,0.726011,1,1,102210.0,61462.0,1694,0.5631237,-6.9378471,32.665771,285.70483,10.6547,362.229,25.9863,53.4401,41.0776,31.8538
1980-05-04 06:37:38,1,7.46,-11.24,-9.42667,0.943798,1,1,114949.0,60491.6,1694,0.56311506,-6.9378996,32.658936,285.70581,10.9131,357.636,30.3315,45.9009,43.5622,31.6013
1980-05-04 06:38:19,1,6.56429,-10.6929,-10.4643,0.492339,1,1,111892.0,68239.8,1694,0.56310648,-6.937952,32.655762,285.70654,10.7807,362.388,29.0726,47.693,42.9791,33.5642
1980-05-04 06:38:59,1,7.23571,-10.9214,-9.85714,1.11387,1,1,111931.0,62330.9,1694,0.56310648,-6.937952,32.647949,285.70654,9.98914,361.496,31.315,45.4204,42.9866,32.0782
1980-05-04 06:39:40,1,7.63571,-11.5929,-8.45714,0.684299,1,1,104472.0,61330.6,1694,0.56309783,-6.9380045,32.644775,285.70728,9.29723,352.259,37.0118,42.455,41.5296,31.8197
1980-05-04 06:40:20,1,8.39286,-11.8643,-7.19286,0.977267,1,1,95416.9,78004.4,1694,0.56308925,-6.9380569,32.637939,285.70825,10.9887,353.489,41.0918,38.7992,39.689,35.8854
1980-05-04 06:41:01,1,8.40714,-11.5143,-8.33571,0.89117,1,1,83416.3,75726.3,1694,0.56308061,-6.9381094,32.630859,285.70898,10.0413,349.477,37.6466,46.1844,37.1093,35.3575
1980-05-04 06:41:41,1,8.26154,-11.2077,-8.74615,0.289868,1,1,131661.0,108166.0,1694,0.56308061,-6.9381094,32.626953,285.70898,11.623,352.142,36.0212,46.6414,46.6215,42.2574
1980-05-04 06:42:22,1,8.92667,-11.2867,-7.73333,0.690893,1,1,129459.0,107621.0,1694,0.56307197,-6.9381618,32.619873,285.70972,12.0138,348.032,38.381,39.2567,46.23,42.1509
1980-05-04 06:43:02,1,8.03846,-10.9231,-9.2,1.02709,1,1,146218.0,99892.4,1694,0.56306338,-6.9382143,32.616699,285.71045,11.6727,351.883,35.1991,44.8437,49.1313,40.6092
1980-05-04 06:43:43,1,7.81333,-11.14,-9.16667,1.00089,1,1,131593.0,106775.0,1694,0.56306338,-6.9382143,32.608887,285.71045,12.595,355.202,38.2256,46.9231,46.6095,41.9849
1980-05-04 06:44:23,1,8.63571,-11.1286,-7.32143,2.747,1,1,138321.0,109982.0,1694,0.56305474,-6.9382668,32.605957,285.71143,12.7119,362.191,36.0235,55.4245,47.7861,42.6106
1980-05-04 06:45:04,1,11.3857,-10.5643,-4.34286,1.38005,1,1,123778.0,113503.0,1694,0.5630461,-6.9383192,32.598877,285.71216,12.7953,337.032,38.9204,22.7689,45.2043,43.2875
1980-05-04 06:45:44,1,10.8538,-10.7923,-4.33077,0.681019,1,1,90100.5,131781.0,1694,0.5630461,-6.9383192,32.591064,285.71216,11.9061,335.677,46.3095,29.398,38.5675,46.6428
1980-05-04 06:46:25,1,10.76,-10.9867,-4.5,1.0873,1,1,126536.0,116336.0,1694,0.56303751,-6.9383717,32.587891,285.71289,12.3708,337.434,35.2709,37.0125,45.7051,43.8243
1980-05-04 06:47:05,1,11.1357,-10.3786,-4.94286,1.13421,1,1,106889.0,126349.0,1694,0.56302887,-6.9384241,32.581055,285.71387,12.9088,337.932,39.6068,33.454,42.0072,45.6713
1980-05-04 06:47:46,1,10.8867,-10.8,-5.62,0.872595,1,1,160470.0,101356.0,1694,0.56302887,-6.9384241,32.577148,285.71387,12.0896,344.166,38.0956,30.1827,51.4702,40.9057
1980-05-04 06:49:07,1,9.5,-10.2867,-8.91333,0.516053,1,1,134713.0,113819.0,1694,0.56301165,-6.938529,32.562988,285.71533,12.4139,351.09,35.4721,46.3919,47.1588,43.3475
1980-05-04 06:49:47,1,10.0267,-10.5267,-7.88,1.17708,1,1,118659.0,122111.0,1694,0.56301165,-6.938529,32.559082,285.71533,12.9188,341.18,36.2385,40.553,44.2597,44.8989
1980-05-04 06:50:28,1,8.13077,-11.3462,-9.22308,0.961692,1,1,132697.0,99353.7,1694,0.563003,-6.9385815,32.552246,285.71631,11.221,358.693,33.9949,56.426,46.8045,40.4995
1980-05-04 06:51:08,1,8.47143,-11.6143,-8.02143,0.996038,1,1,108964.0,86079.1,1694,0.56299436,-6.9386339,32.549072,285.71704,9.23822,354.026,49.6964,43.7601,42.4131,37.697
1980-05-04 06:51:49,1,8.40714,-11.7929,-8.07857,1.26441,1,1,127451.0,109839.0,1694,0.56299436,-6.9386339,32.54126,285.71704,11.6825,356.531,44.0133,44.6059,45.8701,42.5829
1980-05-04 06:52:29,1,10.4538,-10.9846,-7.16154,0.896146,1,1,105753.0,117836.0,1694,0.56298578,-6.9386864,32.538086,285.71777,11.1577,343.419,42.6614,45.0534,41.7835,44.106
1980-05-04 06:53:10,1,9.72,-12.12,-6.34,1.10466,1,1,145439.0,105120.0,1694,0.56297714,-6.9387388,32.531006,285.71851,11.0767,350.237,46.2366,38.3142,49.0003,41.6582
1980-05-04 06:53:50,1,11.3231,-10.7231,-6.78462,1.71606,1,1,114968.0,115436.0,1694,0.56297714,-6.9387388,32.523193,285.71851,10.7303,345.213,45.8689,39.2667,43.5659,43.6544
1980-05-04 06:54:31,1,13.7933,-8.66,-5.82667,1.56023,1,1,101305.0,105462.0,1694,0.56296849,-6.9387913,32.520264,285.71948,10.9324,335.403,36.6288,42.8783,40.8953,41.7259
1980-05-04 06:55:11,1,14.3714,-8.67857,-4.92857,0.625683,1,1,135253.0,97743.6,1694,0.56295991,-6.9388437,32.513184,285.72021,11.2661,330.841,22.369,32.9177,47.2533,40.17
1980-05-04 06:55:52,1,13.6429,-10.0714,-3.65714,1.06157,1,1,110232.0,105098.0,1694,0.56295991,-6.9388437,32.509277,285.72021,11.6943,335.491,40.3853,23.4824,42.6592,41.6538
1980-05-04 06:56:32,1,11.9857,-11.6786,-6.18571,0.587845,1,1,110376.0,118308.0,1694,0.56295127,-6.9388962,32.502197,285.72095,12.8741,341.809,38.6061,37.0609,42.687,44.1942
1980-05-04 06:57:13,1,11.84,-11.5,-6.14,1.16023,1,1,148984.0,106309.0,1694,0.56294262,-6.9389486,32.495361,285.72192,13.2448,345.051,42.1212,35.6034,49.5939,41.8931
1980-05-04 06:57:53,1,11.9,-11.8357,-4.99286,0.768181,1,1,113593.0,127895.0,1694,0.56294262,-6.9389486,32.491455,285.72192,14.6085,340.666,44.342,30.2918,43.3046,45.95
1980-05-04 06:58:34,1,12.06,-11.92,-4.79333,0.725228,1,1,151566.0,109712.0,1694,0.56293404,-6.9390011,32.484375,285.72266,13.5225,343.716,43.133,28.1416,50.0217,42.5584
1980-05-04 06:59:14,1,11.8769,-11.8231,-4.59231,0.710113,1,1,112713.0,126780.0,1694,0.5629254,-6.9390535,32.481201,285.72339,14.2412,343.095,43.8123,30.2442,43.1365,45.7491
1980-05-04 06:59:55,1,11.3933,-12.6333,-4.89333,0.708614,1,1,179105.0,96435.3,1694,0.5629254,-6.9390535,32.473389,285.72339,12.1409,347.282,43.2383,27.5484,54.3766,39.9003
1980-05-04 07:00:35,1,9.50714,-13.4357,-6.59286,0.553606,1,1,117935.0,118504.0,1694,0.56291676,-6.939106,32.466553,285.72437,13.4542,357.585,50.9253,33.8133,44.1244,44.2307
1980-05-04 07:01:16,1,8.66,-14.1133,-7.33333,0.762744,1,1,122381.0,105459.0,1694,0.56290817,-6.9391575,32.463379,285.7251,12.8075,361.93,54.5003,32.0459,44.9484,41.7254
1980-05-04 07:01:56,1,8.16429,-14.5286,-6.85,1.1939,1,1,111832.0,130367.0,1694,0.56290817,-6.9391575,32.455566,285.7251,14.482,362.372,55.2402,34.706,42.9676,46.3918
1980-05-04 07:02:37,1,7.925,-15.1625,-6.70625,0.765542,1,1,191178.0,133233.0,1694,0.56289953,-6.9392099,32.452393,285.72583,16.6555,368.149,50.95,31.3634,56.1794,46.8989
1980-05-04 07:03:17,1,7.9,-15.4,-6.97333,1.14512,1,1,144237.0,110204.0,1694,0.56289089,-6.9392624,32.445557,285.72681,13.0346,370.206,56.8086,27.7584,48.7974,42.6536
1980-05-04 07:03:58,1,7.61875,-16.1,-7.05625,0.778771,1,1,101521.0,99326.3,1694,0.56289089,-6.9392624,32.44165,285.72681,13.8053,371.762,54.9361,30.8813,40.9389,40.4939
1980-05-04 07:04:38,1,7.90667,-14.8133,-7.58667,1.5012,1,1,189226.0,83571.6,1694,0.5628823,-6.9393139,32.43457,285.72754,12.2435,371.499,49.393,26.2058,55.8919,37.1439
1980-05-04 07:05:19,1,7.76667,-13.7933,-8.73333,1.31646,1,1,107278.0,159403.0,1694,0.56287366,-6.9393663,32.42749,285.72827,18.5379,371.931,46.7619,45.4047,42.0836,51.2987
1980-05-04 07:05:59,1,4.48667,-17.1933,-6.58,0.735331,1,1,120139.0,119573.0,1694,0.56287366,-6.9393663,32.423584,285.72827,14.5721,387.738,58.5121,26.2022,44.5349,44.4299
1980-05-04 07:06:40,1,3.07333,-17.52,-5.90667,1.14084,1,1,145296.0,111680.0,1694,0.56286502,-6.9394188,32.416748,285.72925,14.0307,391.941,57.0091,29.4356,48.9762,42.9383
1980-05-04 07:07:20,1,4.21333,-17.46,-6.52667,1.00076,1,1,110172.0,112106.0,1694,0.56285638,-6.9394712,32.413574,285.72998,14.2761,388.267,62.6629,22.7861,42.6476,43.0201
1980-05-04 07:08:01,1,3.80625,-17.4938,-7.125,0.751197,1,1,138669.0,121766.0,1694,0.56284779,-6.9395227,32.406494,285.73071,16.3505,386.102,58.7442,27.6734,47.8462,44.8354
1980-05-04 07:09:22,1,2.92,-17.42,-5.34,1.03228,1,1,313686.0,86033.3,1694,0.56283915,-6.9395752,32.395752,285.73169,12.9392,388.023,57.1521,7.39541,71.9624,37.687
1980-05-04 07:10:02,1,5.52667,-15.9733,-6.44,1.64347,1,1,108721.0,84117.9,1694,0.56283051,-6.9396276,32.388672,285.73242,12.5201,377.481,55.9055,13.0502,42.3657,37.2651
1980-05-04 07:10:43,1,4.35625,-17.5312,-5.2625,1.16058,1,1,241073.0,84402.8,1694,0.56283051,-6.9396276,32.384766,285.73242,13.9171,386.685,58.6916,9.51927,63.0859,37.3281
1980-05-04 07:11:23,1,6.9375,-15.7313,-8.3375,1.94469,1,1,119696.0,115820.0,1694,0.56282187,-6.9396801,32.377686,285.73315,14.1701,371.613,47.1517,40.6543,44.4527,43.7269
1980-05-04 07:12:04,1,3.24667,-17.3067,-5.35333,2.49592,1,1,189185.0,84435.7,1694,0.56281328,-6.9397316,32.37085,285.73413,16.0589,402.487,55.9056,14.4163,55.8858,37.3354
1980-05-04 07:12:44,1,5.17333,-16.84,-7.87333,0.912676,1,1,93974.9,89053.7,1694,0.56281328,-6.9397316,32.366943,285.73413,14.3407,385.425,61.155,29.3117,39.388,38.3428
1980-05-04 07:13:25,1,8.39333,-15.7333,-8.14,1.27433,1,1,124089.0,97119.5,1694,0.56280464,-6.939784,32.359863,285.73486,12.9796,365.214,52.5913,30.6013,45.2611,40.0416
1980-05-04 07:14:05,1,7.77333,-15.6867,-8.26667,1.95925,1,1,109283.0,107198.0,1694,0.562796,-6.9398365,32.356689,285.7356,14.4238,370.924,57.8422,21.2699,42.4752,42.0679
1980-05-04 07:14:46,1,7.45625,-16.9062,-2.475,4.70159,1,1,148439.0,65389.6,1694,0.562796,-6.9398365,32.348877,285.7356,12.6718,372.451,58.0478,-7.22901,49.503,32.8558
1980-05-04 07:15:26,1,5.85714,-18.2143,-3.02143,1.29931,1,1,109707.0,79380.1,1694,0.56278741,-6.939889,32.345947,285.73657,16.1139,382.05,61.0764,11.9528,42.5574,36.2004
1980-05-04 07:16:07,1,0.486667,-18.3867,-3.10667,5.37304,1,1,170772.0,129281.0,1694,0.56277877,-6.9399405,32.338867,285.7373,22.2511,404.18,65.9209,-6.64555,53.0965,46.1983
1980-05-04 07:16:47,1,0.694118,-8.27647,-19.5412,2.37513,1,1,241172.0,59703.9,1694,0.56277877,-6.9399405,32.331055,285.7373,12.8961,398.21,32.7249,85.2855,63.0988,31.3949
1980-05-04 07:17:28,1,-0.905882,-6.78235,-18.8647,3.8406,1,1,140124.0,129304.0,1694,0.56277013,-6.9399929,32.327881,285.73804,17.776,405.23,28.72,73.9261,48.0966,46.2024
1980-05-04 07:18:08,-1,nan,nan,nan,nan,1,4,nan,nan,1694,0.56276149,-6.9400454,32.321045,285.73901,nan,nan,nan,nan,nan,nan
1980-05-04 07:18:49,1,5.05882,-15.1471,-13.4412,1.04275,1,1,127160.0,85419.7,1694,0.56276149,-6.9400454,32.317139,285.73901,15.1993,387.153,47.3102,50.861,45.8176,37.5523
1980-05-04 07:19:29,-1,nan,nan,nan,nan,1,4,nan,nan,1694,0.5627529,-6.9400969,32.310059,285.73975,nan,nan,nan,nan,nan,nan
1980-05-04 07:20:10,1,6.6875,-14.0062,-13.3938,2.67951,1,1,109028.0,77298.8,1694,0.56274426,-6.9401493,32.302979,285.74048,14.6599,372.161,47.1256,46.6566,42.4255,35.7227
1980-05-04 07:20:50,1,7.54,-13.9733,-12.4467,2.56389,1,1,98257.8,96949.7,1694,0.56274426,-6.9401493,32.299072,285.74048,16.8709,370.145,47.966,48.2348,40.2755,40.0066
1980-05-04 07:21:31,1,8.88125,-16.3938,-9.3,1.30848,1,1,108818.0,97637.6,1694,0.56273562,-6.9402018,32.292236,285.74146,16.9889,367.49,57.0159,35.2277,42.3846,40.1482
1980-05-04 07:22:11,1,8.27143,-14.8643,-11.8286,0.790537,1,1,100352.0,89774.9,1694,0.56272697,-6.9402542,32.289063,285.74219,15.5044,371.127,49.15,44.1134,40.7025,38.4978
1980-05-04 07:22:52,-1,nan,nan,nan,nan,1,4,nan,nan,1694,0.56272697,-6.9402542,32.28125,285.74219,nan,nan,nan,nan,nan,nan
1980-05-04 07:23:32,1,15.5231,-11.0,-1.02308,1.21675,1,1,100612.0,95016.1,1694,0.56271839,-6.9403057,32.278076,285.74292,15.7714,334.179,34.901,2.35162,40.7551,39.6056
1980-05-04 07:24:13,1,15.2643,-11.0643,-4.07857,2.55829,1,1,75975.4,91604.0,1694,0.56270975,-6.9403582,32.27124,285.7439,15.6714,335.058,33.8486,9.5689,35.4156,38.888
1980-05-04 07:24:53,1,10.5385,-13.5385,-7.02308,6.1542,1,1,92139.5,70996.6,1694,0.56270975,-6.9403582,32.263428,285.7439,13.7594,366.178,58.4895,23.6469,39.0015,34.2355
1980-05-04 07:25:34,1,12.0133,-11.3933,-9.29333,3.31156,1,1,326420.0,98782.5,1694,0.56270111,-6.9404106,32.260254,285.74463,14.3437,350.739,38.8347,30.0067,73.4085,40.3829
1980-05-04 07:26:14,1,11.5846,-14.3,-7.63846,1.65687,1,1,101509.0,82183.0,1694,0.56269246,-6.9404631,32.253174,285.74536,13.3143,354.977,47.0141,41.1394,40.9365,36.834
1980-05-04 07:26:55,1,10.4467,-14.8333,-9.23333,1.02255,1,1,118731.0,90656.1,1694,0.56269246,-6.9404631,32.249268,285.74536,15.491,359.288,48.8742,37.3384,44.2732,38.6862
1980-05-04 07:27:35,1,9.74286,-14.0857,-10.5357,1.6925,1,1,120547.0,105021.0,1694,0.56268388,-6.9405146,32.242432,285.74634,14.3309,358.624,55.3062,39.2841,44.6104,41.6385
1980-05-04 07:28:16,1,15.72,-12.1533,-4.85333,1.61366,1,1,102147.0,99180.4,1694,0.56267524,-6.940567,32.235352,285.74707,15.415,333.946,47.5446,13.4981,41.0649,40.4642
1980-05-04 07:28:56,1,13.4846,-13.0154,-8.73846,1.88403,1,1,97171.9,83900.8,1694,0.56267524,-6.940567,32.231445,285.74707,13.5991,347.054,42.703,31.967,40.0524,37.217
1980-05-04 07:29:37,1,14.4733,-11.7467,-8.15333,1.48737,1,1,178464.0,91137.7,1694,0.56266659,-6.9406195,32.224365,285.7478,14.5707,338.624,36.937,35.8321,54.2792,38.7888
1980-05-04 07:30:17,1,13.7286,-11.7643,-8.7,1.2473,1,1,99721.8,101222.0,1694,0.56265801,-6.9406719,32.221436,285.74878,14.0785,338.607,43.8288,36.6633,40.5745,40.8785
1980-05-04 07:30:58,1,12.3231,-13.6923,-7.58462,2.40399,1,1,140045.0,84758.5,1694,0.56265795,-6.9406719,32.213623,285.74878,14.5407,347.704,43.6302,35.4401,48.0831,37.4067
1980-05-04 07:31:38,1,9.19231,-15.3846,-4.18462,1.75331,1,1,300489.0,107164.0,1694,0.56264937,-6.9407234,32.210449,285.74951,16.7916,369.212,50.9642,6.34434,70.4324,42.0613
1980-05-04 07:32:19,1,11.1467,-14.86,-3.74,1.34435,1,1,194225.0,117026.0,1694,0.56264073,-6.9407759,32.203369,285.75024,19.0783,355.454,50.1529,8.76174,56.6253,43.954
1980-05-04 07:32:59,1,13.8,-12.0667,-5.55333,2.48771,1,1,263806.0,89175.0,1694,0.56264073,-6.9407759,32.195557,285.75024,16.8935,352.477,33.3932,17.3678,65.9934,38.3689
1980-05-04 07:33:40,-1,nan,nan,nan,nan,1,4,nan,nan,1694,0.56263208,-6.9408283,32.192627,285.75122,nan,nan,nan,nan,nan,nan
1980-05-04 07:34:20,1,15.6615,-10.8231,-5.26923,0.984555,1,1,92138.4,94067.4,1694,0.5626235,-6.9408798,32.185547,285.75195,14.9186,335.89,40.2684,14.5674,39.0012,39.4074
1980-05-04 07:35:01,1,17.6,-6.71538,-5.44615,0.695548,1,1,139904.0,102157.0,1694,0.56261486,-6.9409323,32.182373,285.75269,16.9063,330.511,16.0901,22.7153,48.0588,41.067
1980-05-04 07:35:41,1,17.9667,-5.44167,-4.48333,1.10501,1,1,150844.0,94894.1,1694,0.56261486,-6.9409323,32.174561,285.75269,17.418,332.597,11.1511,14.3654,49.9024,39.5801
1980-05-04 07:36:22,1,18.1429,-4.90714,-3.76429,0.697737,1,1,541307.0,108579.0,1694,0.56260622,-6.9409847,32.167725,285.75366,24.6704,324.49,14.0362,14.8124,94.5322,42.3381
1980-05-04 07:37:02,-1,nan,nan,nan,nan,1,4,nan,nan,1694,0.56259757,-6.9410372,32.164551,285.75439,nan,nan,nan,nan,nan,nan
1980-05-04 07:37:43,-1,nan,nan,nan,nan,1,4,nan,nan,1694,0.56259757,-6.9410372,32.156738,285.75439,nan,nan,nan,nan,nan,nan
1980-05-04 07:38:23,1,17.0333,-7.98333,-4.55833,1.29075,1,1,126391.0,132924.0,1694,0.56258899,-6.9410887,32.153564,285.75513,18.6105,333.508,23.7294,20.2943,45.6789,46.8446